This is the latest recevied weather packets stored in our database for station/object W1RCY. If no packets are shown the sender has not sent any weather packets the latest 10 day(s).
| Time | Temp. | Humidity | Pressure | Rain* | Wind** | Luminosity | Snow |
|---|---|---|---|---|---|---|---|
| 1778017566 | 26.11° C | 38% | 1002.5 hPa | 0 mm | - | 101 W/m² | - |
| 1778017262 | 26.11° C | 38% | 1002.6 hPa | 0 mm | - | 92 W/m² | - |
| 1778016960 | 26.11° C | 38% | 1002.5 hPa | 0 mm | - | 101 W/m² | - |
| 1778016656 | 26.67° C | 37% | 1002.5 hPa | 0 mm | - | 109 W/m² | - |
| 1778016352 | 26.67° C | 37% | 1002.3 hPa | 0 mm | - | 145 W/m² | - |
| 1778016050 | 26.67° C | 37% | 1002.4 hPa | 0 mm | - | 130 W/m² | - |
| 1778015747 | 26.67° C | 37% | 1002.2 hPa | 0 mm | - | 144 W/m² | - |
| 1778015444 | 26.67° C | 36% | 1002.4 hPa | 0 mm | - | 171 W/m² | - |
| 1778015140 | 27.22° C | 36% | 1002.1 hPa | 0 mm | - | 121 W/m² | - |
| 1778014838 | 27.22° C | 35% | 1001.9 hPa | 0 mm | - | 234 W/m² | - |
| 1778014535 | 27.22° C | 35% | 1001.9 hPa | 0 mm | - | 265 W/m² | - |
| 1778014232 | 27.22° C | 35% | 1002 hPa | 0 mm | - | 282 W/m² | - |
| 1778013930 | 27.78° C | 35% | 1001.9 hPa | 0 mm | - | 348 W/m² | - |
| 1778013627 | 27.22° C | 35% | 1002.1 hPa | 0 mm | - | 425 W/m² | - |
| 1778013324 | 27.22° C | 35% | 1001.9 hPa | 0 mm | - | 471 W/m² | - |
| 1778013021 | 27.22° C | 36% | 1002.2 hPa | 0 mm | - | 493 W/m² | - |
| 1778012717 | 26.67° C | 37% | 1002.1 hPa | 0 mm | - | 134 W/m² | - |
| 1778012413 | 27.22° C | 36% | 1001.9 hPa | 0 mm | - | 229 W/m² | - |
| 1778012110 | 27.22° C | 38% | 1002.3 hPa | 0 mm | - | 235 W/m² | - |
| 1778011807 | 27.22° C | 37% | 1002.2 hPa | 0 mm | - | 488 W/m² | - |
| 1778011505 | 27.22° C | 38% | 1002.1 hPa | 0 mm | - | 538 W/m² | - |
| 1778011201 | 27.22° C | 38% | 1002.2 hPa | 0 mm | - | 192 W/m² | - |
| 1778010898 | 27.22° C | 37% | 1002.3 hPa | 0 mm | - | 605 W/m² | - |
| 1778010595 | 27.22° C | 36% | 1002.6 hPa | 0 mm | - | 170 W/m² | - |
| 1778010293 | 27.22° C | 36% | 1002.6 hPa | 0 mm | - | 260 W/m² | - |
* Rain latest hour (hover to see other rain measurements)
** Current wind speed in m/s (hover to see current wind gust speed)